INTELSAT 33E DEB, 64399

Orbit data source: Space-Track

INTELSAT 33E DEB, 64399 is space debris in GEO originally from a launch on Wed, 24 Aug 2016 UTC launched from the French Guiana (FRGUI). Debris objects in space refer to the collection of defunct objects orbiting the Earth. Examples of debris include non-operational satellites, rocket bodies, and fragments generated from explosions, collisions, or faulty payload assembly.

Loading next visibility...
Identifier
64399, 2016-053AD
Orbit
GEO
Country
Flag of UnknownUnknown / ITSO
Related business
Manufacturer
Boeing/ES
Mission
Spacecraft
Bus & Motor
Unknown
Mass
Unknown
Launch date (UTC)
2016-08-24 (9 years ago)
Launch vehicle
Unknown
Launch site
French Guiana (FRGUI)
Object type
Payload
Rocket body
Debris
Shape & HBR
Unknown shape, 1.1 m
Radar Cross Section
RCS unknown

Expand to show TLE details & history
Last TLE update: 5 days ago

TLE from 5 days ago
0 INTELSAT 33E DEB
1 64399U 16053AD  25287.24784126 -.00000281  00000-0  00000-0 0  9996
2 64399   1.0264  50.8932 0245784  74.5686 288.4331  0.98817660  3398
Epoch: 2025-10-14T05:56Z
TLE epoch observation values (Epoch: 2025-10-14T05:56:53.484Z)
Latitude
0.00001°
Longitude
-61.07423°
Altitude
35,895.049 km
Speed
3.082 km/s
True Right ascension
03h 24m 45s
True Declination
0° 00' 00"
Sunlit
Object was in daylight at epoch
Visualization orbit readout
Latitude
Unknown
Longitude
Unknown
Altitude
Unknown
Speed
Unknown
Apparent Right ascension
Unknown
Apparent Declination
Unknown
Sunlit
N/A
Visualization observer readout
Local Sidereal Time
00:16:00
Azimuth
Unknown
Elevation
Unknown
Doppler factor
Unknown
Orbital elements
Apogee altitude
37,246.8 km
Perigee altitude
35,153.781 km
Semi-major axis
42,578.428 km
Eccentricity
0.02458
Inclination
1.0264°
RAAN
50.8932°
Arg. of periapsis
74.5686°
True anomaly
285.73592°
Mean anomaly
288.4331°
Eccentric anomaly
287.08702°
Mean motion
0.24704 °/min
Orbital period
1,457.28 mins
BSTAR
0
Loading maneuver chart data...
Computing Atmospheric mass density...
Loading historical data...
Loading historical data...
Loading historical data...
Loading historical data...
Loading historical data...
Loading historical data...
Loading historical data...

Documentation

Showing up to 5 results
|